Location: Byszew
(52.1813°N, 19.2693°E)
Time: 21:27:40
(UTC+00:00)

Cosmos 1844 Rocket - Pass Details

Date: 03 March 2021
Orbit: 826 x 843 km, 71.0° (Epoch: 15 April)

Event Time Altitude Azimuth Distance (km) Brightness Sun altitude
Rises 18:21:22 0° 326° (NW) 3,377 6.6 -18.3°
Reaches altitude 10° 18:23:53 10° 321° (NW) 2,439 5.9 -18.7°
Maximum altitude 18:29:12 47° 249° (WSW) 1,087 3.6 -19.5°
Drops below altitude 10° 18:34:29 10° 177° (S) 2,425 4.9 -20.3°
Enters shadow 18:35:42 - 174° (S) 2,876 5.2 -20.5°
